SPATO EPKK-EPWA

Flight info

Callsign SPATO
Flight time N/A
Altitude 10000
Route DCT EPKKZ DCT EPKKO DCT EPWAX DCT EPWAR DCT EPWAW DCT EPWA
Aircraft SR20/L-V/N

Departure

Time 2026-05-06 20:35
Airport Kraków John Paul II International Airport (EPKK)

Arrival

Time N/A
Airport Warsaw Chopin Airport (EPWA)
Time Latitude Longitude Altitude Speed Heading
2026-05-06 20:14 50.07490 19.80276 795 ft 0 kts 167°
2026-05-06 20:27 50.07488 19.80277 795 ft 0 kts 168°
2026-05-06 20:27 50.07483 19.80278 795 ft 3 kts 167°
2026-05-06 20:28 50.07439 19.80315 795 ft 8 kts 109°
2026-05-06 20:28 50.07465 19.80379 795 ft 7 kts 15°
2026-05-06 20:28 50.07510 19.80392 795 ft 5 kts 18°
2026-05-06 20:28 50.07545 19.80414 795 ft 5 kts 21°
2026-05-06 20:29 50.07576 19.80425 795 ft 3 kts
2026-05-06 20:29 50.07620 19.80415 795 ft 8 kts 346°
2026-05-06 20:29 50.07690 19.80388 795 ft 11 kts 347°
2026-05-06 20:29 50.07772 19.80360 795 ft 11 kts 346°
2026-05-06 20:30 50.07828 19.80342 795 ft 5 kts 347°
2026-05-06 20:30 50.07843 19.80339 795 ft 4 kts 359°
2026-05-06 20:30 50.07855 19.80343 795 ft 0 kts 42°
2026-05-06 20:31 50.07856 19.80343 795 ft 0 kts 352°
2026-05-06 20:33 50.07863 19.80339 795 ft 2 kts 337°
2026-05-06 20:33 50.07881 19.80325 795 ft 0 kts 326°
2026-05-06 20:33 50.07883 19.80324 795 ft 1 kts 335°
2026-05-06 20:33 50.07885 19.80323 795 ft 0 kts 345°
2026-05-06 20:34 50.07922 19.80306 795 ft 11 kts 347°
2026-05-06 20:34 50.08019 19.80256 795 ft 11 kts 276°
2026-05-06 20:34 50.07976 19.79947 795 ft 59 kts 260°
2026-05-06 20:34 50.07870 19.79093 918 ft 89 kts 255°
2026-05-06 20:35 50.07767 19.78154 1208 ft 91 kts 254°
2026-05-06 20:35 50.07641 19.77239 1562 ft 85 kts 255°
2026-05-06 20:35 50.07612 19.76176 1574 ft 119 kts 270°
2026-05-06 20:35 50.08039 19.75006 1707 ft 139 kts 329°
2026-05-06 20:36 50.08994 19.74847 1955 ft 142 kts 359°
2026-05-06 20:36 50.10039 19.74967 2052 ft 156 kts 12°
2026-05-06 20:36 50.11066 19.75622 2113 ft 167 kts 29°
2026-05-06 20:36 50.12086 19.76617 2051 ft 178 kts 38°
2026-05-06 20:37 50.13065 19.77741 2205 ft 176 kts 37°
2026-05-06 20:37 50.14174 19.78552 2273 ft 180 kts 12°
2026-05-06 20:37 50.15457 19.78705 2240 ft 185 kts 360°
2026-05-06 20:37 50.16718 19.78669 2188 ft 178 kts
2026-05-06 20:38 50.17915 19.79081 2141 ft 173 kts 15°
2026-05-06 20:38 50.19059 19.79607 2090 ft 170 kts 17°
2026-05-06 20:38 50.20182 19.80127 2080 ft 165 kts 15°
2026-05-06 20:38 50.21218 19.80608 2297 ft 152 kts 16°
2026-05-06 20:39 50.22226 19.81059 2590 ft 148 kts 15°
2026-05-06 20:39 50.22997 19.81404 2805 ft 146 kts 15°
2026-05-06 20:39 50.23963 19.81840 3079 ft 144 kts 15°
2026-05-06 20:39 50.24920 19.82273 3392 ft 139 kts 15°
2026-05-06 20:40 50.25813 19.82681 3763 ft 129 kts 15°
2026-05-06 20:40 50.26642 19.83060 4085 ft 124 kts 13°
2026-05-06 20:40 50.27480 19.83436 4324 ft 128 kts 13°
2026-05-06 20:40 50.28372 19.83838 4507 ft 136 kts 13°
2026-05-06 20:41 50.29291 19.84257 4755 ft 138 kts 13°
2026-05-06 20:41 50.30213 19.84676 5000 ft 140 kts 12°
2026-05-06 20:41 50.31157 19.85107 5257 ft 140 kts 12°
2026-05-06 20:41 50.32087 19.85530 5510 ft 140 kts 12°
2026-05-06 20:42 50.33020 19.85955 5743 ft 141 kts 12°
2026-05-06 20:42 50.33970 19.86388 5975 ft 142 kts 12°
2026-05-06 20:42 50.34926 19.86824 6201 ft 144 kts 11°
2026-05-06 20:42 50.35931 19.87278 6285 ft 158 kts 12°
2026-05-06 20:43 50.37016 19.87774 6399 ft 167 kts 12°
2026-05-06 20:43 50.38130 19.88282 6596 ft 167 kts 12°
2026-05-06 20:43 50.39227 19.88787 6821 ft 165 kts 12°
2026-05-06 20:43 50.40350 19.89301 6959 ft 170 kts 13°
2026-05-06 20:44 50.41508 19.89827 6977 ft 181 kts 13°
2026-05-06 20:44 50.42752 19.90399 6976 ft 190 kts 13°
2026-05-06 20:44 50.44047 19.90994 6974 ft 199 kts 13°
2026-05-06 20:44 50.45399 19.91616 6974 ft 206 kts 13°
2026-05-06 20:45 50.46788 19.92252 6973 ft 210 kts 13°
2026-05-06 20:45 50.48205 19.92902 6970 ft 212 kts 14°
2026-05-06 20:45 50.49611 19.93548 6967 ft 214 kts 14°
2026-05-06 20:45 50.51046 19.94206 6964 ft 215 kts 14°
2026-05-06 20:46 50.52487 19.94871 6962 ft 215 kts 14°
2026-05-06 20:46 50.53924 19.95532 6966 ft 216 kts 14°
2026-05-06 20:46 50.55369 19.96197 6965 ft 216 kts 14°
2026-05-06 20:46 50.56796 19.96835 6954 ft 214 kts
2026-05-06 20:47 50.58192 19.96434 6944 ft 197 kts 319°
2026-05-06 20:47 50.58888 19.94824 6944 ft 174 kts 272°
2026-05-06 20:47 50.58834 19.92971 6951 ft 173 kts 269°
2026-05-06 20:47 50.59182 19.91135 6955 ft 180 kts 286°
2026-05-06 20:48 50.60166 19.89779 6948 ft 202 kts 334°
2026-05-06 20:48 50.61591 19.89738 6959 ft 211 kts
2026-05-06 20:48 50.63022 19.90335 6958 ft 213 kts 15°
2026-05-06 20:48 50.64433 19.91082 6953 ft 214 kts 18°
2026-05-06 20:49 50.65840 19.91893 6952 ft 215 kts 19°
2026-05-06 20:49 50.67236 19.92728 6956 ft 215 kts 20°
2026-05-06 20:49 50.68624 19.93573 6964 ft 214 kts 20°
2026-05-06 20:49 50.70010 19.94427 6971 ft 214 kts 21°
2026-05-06 20:50 50.71384 19.95281 6972 ft 214 kts 20°
2026-05-06 20:50 50.72774 19.96148 6975 ft 214 kts 21°
2026-05-06 20:50 50.74158 19.97013 6974 ft 214 kts 20°
2026-05-06 20:50 50.75560 19.97890 6837 ft 220 kts 20°
2026-05-06 20:51 50.76969 19.98772 6808 ft 219 kts 20°
2026-05-06 20:51 50.78379 19.99654 6801 ft 217 kts 20°
2026-05-06 20:51 50.79790 20.00538 6796 ft 216 kts 20°
2026-05-06 20:51 50.81183 20.01412 6792 ft 215 kts 20°
2026-05-06 20:52 50.82567 20.02278 6790 ft 214 kts 20°
2026-05-06 20:52 50.83945 20.03142 6789 ft 214 kts 21°
2026-05-06 20:52 50.85325 20.04011 6789 ft 213 kts 21°
2026-05-06 20:52 50.86706 20.04878 6790 ft 213 kts 20°
2026-05-06 20:53 50.88078 20.05741 6790 ft 212 kts 21°
2026-05-06 20:53 50.89434 20.06593 6790 ft 212 kts 21°
2026-05-06 20:53 50.90822 20.07467 6789 ft 212 kts 21°
2026-05-06 20:53 50.92187 20.08326 6792 ft 212 kts 21°
2026-05-06 20:54 50.93556 20.09189 6789 ft 212 kts 21°
2026-05-06 20:54 50.94924 20.10055 6787 ft 211 kts 21°
2026-05-06 20:54 50.96274 20.10908 6787 ft 211 kts 21°
2026-05-06 20:54 50.97638 20.11771 6788 ft 211 kts 21°
2026-05-06 20:55 50.98999 20.12631 6789 ft 210 kts 21°
2026-05-06 20:55 51.00356 20.13489 6790 ft 210 kts 21°
2026-05-06 20:55 51.01723 20.14355 6791 ft 210 kts 20°
2026-05-06 20:55 51.03070 20.15209 6792 ft 210 kts 20°
2026-05-06 20:56 51.04420 20.16063 6799 ft 210 kts 20°
2026-05-06 20:56 51.05789 20.16930 6796 ft 210 kts 20°
2026-05-06 20:56 51.07138 20.17785 6796 ft 210 kts 20°
2026-05-06 20:56 51.08508 20.18655 6796 ft 210 kts 21°
2026-05-06 20:57 51.09859 20.19512 6791 ft 211 kts 21°
2026-05-06 20:57 51.11224 20.20381 6785 ft 210 kts 21°
2026-05-06 20:57 51.12573 20.21238 6783 ft 210 kts 21°
2026-05-06 20:57 51.13936 20.22106 6783 ft 210 kts 21°
2026-05-06 20:58 51.15278 20.22961 6782 ft 210 kts 21°
2026-05-06 20:58 51.16644 20.23833 6782 ft 209 kts 21°
2026-05-06 20:58 51.17999 20.24698 6781 ft 209 kts 21°
2026-05-06 20:58 51.19339 20.25555 6781 ft 209 kts 21°
2026-05-06 20:59 51.20686 20.26415 6778 ft 209 kts 20°
2026-05-06 20:59 51.22042 20.27283 6781 ft 209 kts 20°
2026-05-06 20:59 51.23381 20.28152 6778 ft 209 kts 21°
2026-05-06 20:59 51.24722 20.29030 6782 ft 208 kts 21°
2026-05-06 21:00 51.26069 20.29914 6790 ft 209 kts 21°
2026-05-06 21:00 51.27405 20.30790 6785 ft 209 kts 21°
2026-05-06 21:00 51.28755 20.31677 6786 ft 209 kts 21°
2026-05-06 21:00 51.30098 20.32561 6783 ft 209 kts 21°
2026-05-06 21:01 51.31445 20.33448 6786 ft 208 kts 21°
2026-05-06 21:01 51.32778 20.34324 6795 ft 209 kts 21°
2026-05-06 21:01 51.33928 20.35081 6798 ft 209 kts 21°
2026-05-06 21:01 51.35267 20.35963 6798 ft 209 kts 21°
2026-05-06 21:02 51.36614 20.36852 6804 ft 208 kts 21°
2026-05-06 21:02 51.37945 20.37732 6797 ft 209 kts 21°
2026-05-06 21:02 51.39279 20.38614 6800 ft 209 kts 21°
2026-05-06 21:02 51.40629 20.39507 6798 ft 209 kts 21°
2026-05-06 21:03 51.41966 20.40390 6799 ft 210 kts 21°
2026-05-06 21:03 51.43323 20.41286 6799 ft 210 kts 21°
2026-05-06 21:03 51.44658 20.42170 6802 ft 210 kts 21°
2026-05-06 21:03 51.46008 20.43065 6808 ft 210 kts 21°
2026-05-06 21:04 51.47370 20.43967 6806 ft 210 kts 21°
2026-05-06 21:04 51.48712 20.44858 6810 ft 210 kts 21°
2026-05-06 21:04 51.50065 20.45755 6808 ft 211 kts 21°
2026-05-06 21:04 51.51434 20.46663 6804 ft 211 kts 21°
2026-05-06 21:05 51.52780 20.47559 6799 ft 211 kts 21°
2026-05-06 21:05 51.54129 20.48457 6805 ft 210 kts 21°
2026-05-06 21:05 51.55491 20.49363 6806 ft 211 kts 21°
2026-05-06 21:05 51.56837 20.50258 6809 ft 211 kts 21°
2026-05-06 21:06 51.58196 20.51164 6805 ft 211 kts 21°
2026-05-06 21:06 51.59555 20.52069 6803 ft 211 kts 21°
2026-05-06 21:06 51.60913 20.52976 6806 ft 211 kts 21°
2026-05-06 21:06 51.62250 20.53869 6806 ft 211 kts 21°
2026-05-06 21:07 51.63618 20.54783 6807 ft 211 kts 21°
2026-05-06 21:07 51.64969 20.55687 6800 ft 210 kts 21°
2026-05-06 21:07 51.66304 20.56581 6804 ft 210 kts 21°
2026-05-06 21:07 51.67655 20.57485 6797 ft 210 kts 21°
2026-05-06 21:08 51.69009 20.58393 6790 ft 210 kts 21°
2026-05-06 21:08 51.70363 20.59299 6791 ft 209 kts 21°
2026-05-06 21:08 51.71714 20.60205 6793 ft 209 kts 21°
2026-05-06 21:08 51.73045 20.61096 6799 ft 208 kts 21°
2026-05-06 21:09 51.74388 20.61993 6797 ft 208 kts 21°
2026-05-06 21:09 51.75721 20.62885 6796 ft 208 kts 21°
2026-05-06 21:09 51.77056 20.63781 6660 ft 205 kts 22°
2026-05-06 21:09 51.78340 20.64646 6468 ft 196 kts 22°
2026-05-06 21:10 51.79539 20.65453 6450 ft 179 kts 22°
2026-05-06 21:10 51.80650 20.66201 6449 ft 166 kts 22°
2026-05-06 21:10 51.81674 20.66890 6445 ft 155 kts 22°
2026-05-06 21:10 51.82655 20.67551 6306 ft 158 kts 22°
2026-05-06 21:11 51.83664 20.68230 6204 ft 156 kts 22°
2026-05-06 21:11 51.84679 20.68915 6052 ft 159 kts 22°
2026-05-06 21:11 51.85710 20.69611 5877 ft 162 kts 22°
2026-05-06 21:11 51.86743 20.70310 5728 ft 162 kts 22°
2026-05-06 21:12 51.87817 20.71037 5398 ft 167 kts 22°
2026-05-06 21:12 51.88851 20.71739 5048 ft 160 kts 22°
2026-05-06 21:12 51.89853 20.72416 4693 ft 153 kts 22°
2026-05-06 21:12 51.90813 20.73067 4341 ft 148 kts 21°
2026-05-06 21:13 51.91754 20.73702 3984 ft 143 kts 21°
2026-05-06 21:13 51.92659 20.74313 3627 ft 139 kts 21°
2026-05-06 21:13 51.93530 20.74904 3276 ft 135 kts 21°
2026-05-06 21:13 51.94387 20.75483 2964 ft 128 kts 21°
2026-05-06 21:14 51.95110 20.75976 2897 ft 98 kts 20°
2026-05-06 21:14 51.95689 20.76378 2842 ft 88 kts 18°
2026-05-06 21:14 51.96320 20.76859 2798 ft 112 kts 24°
2026-05-06 21:14 51.97098 20.77423 2831 ft 135 kts 18°
2026-05-06 21:15 51.98042 20.78003 2806 ft 151 kts 19°
2026-05-06 21:15 51.99020 20.78767 2798 ft 162 kts 29°
2026-05-06 21:15 51.99994 20.79743 2792 ft 168 kts 31°
2026-05-06 21:15 52.01002 20.80775 2793 ft 172 kts 31°
2026-05-06 21:16 52.02034 20.81829 2794 ft 175 kts 31°
2026-05-06 21:16 52.03038 20.82931 2784 ft 177 kts 43°
2026-05-06 21:16 52.03508 20.84743 2786 ft 178 kts 90°
2026-05-06 21:16 52.03081 20.86549 2783 ft 173 kts 136°
2026-05-06 21:17 52.02042 20.87331 2790 ft 165 kts 179°
2026-05-06 21:17 52.00897 20.87268 2791 ft 164 kts 188°